Regional Weather Roundup
Issued by NWS

Home | Current Version | Previous Version | Graphics & Text | Print | Product List | Glossary On
Versions: 1 2 3 4 5 6 7 8 9 10 11 12 13 14 15 16 17 18 19 20 21 22 23 24 25 26 27 28 29 30 31 32 33 34 35 36 37 38 39 40 41 42 43 44 45 46 47 48 49 50
000
ASUS45 KCYS 211310
RWRWY

WYOMING REGIONAL WEATHER ROUNDUP
NATIONAL WEATHER SERVICE CHEYENNE WY
700 AM MDT SUN SEP 21 2014

NOTE:  "FAIR" INDICATES FEW OR NO CLOUDS BELOW 12,000 FEET
WITH NO SIGNIFICANT WEATHER AND/OR OBSTRUCTIONS TO VISIBILITY.

WYZ001-211400-
YELLOWSTONE NATIONAL PARK

CITY           SKY/WX    TMP DP  RH WIND       PRES   REMARKS
LK YELLOWSTONE   N/A     33  32  96 CALM      30.43R
W YELLOWSTONE  NOT AVBL

$$
WYZ002>013-054>058-071-098>099-211400-
NORTHERN WYOMING

CITY           SKY/WX    TMP DP  RH WIND       PRES   REMARKS
JACKSON        CLEAR     45  39  81 CALM      30.34S
CODY             N/A    N/A N/A N/A MISG        N/A
GREYBULL       CLEAR     46  40  79 SW3       30.29R
WORLAND        CLEAR     43  39  86 S6        30.30R
SHERIDAN       CLEAR     39  37  92 NW5       30.31R
BUFFALO        CLEAR     47  37  68 S5        30.34S
GILLETTE       CLEAR     40  36  86 S3        30.35R
HULETT         FAIR      46  34  61 MISG      30.37
NEWCASTLE      FAIR      41  34  75 N5        30.37

$$
WYZ014>020-022>026-101>103-211400-
CENTRAL WYOMING

CITY           SKY/WX    TMP DP  RH WIND       PRES   REMARKS
BIG PINEY      PTCLDY    38  32  79 NE7       30.37S WCI  33
PINEDALE       MOSUNNY   36  34  93 NW5       30.37F WCI  32
DUBOIS         FAIR      37  34  87 NW8       30.43S WCI  31
LANDER         CLEAR     49  38  65 W12       30.35S
RIVERTON       PTCLDY    47  34  60 N7        30.36R
CASPER         CLEAR     40  32  73 NW9       30.36S WCI  34
DOUGLAS        CLEAR     46  37  71 S6        30.37R

$$
WYZ021-027>030-104>119-211400-
SOUTHERN WYOMING

CITY           SKY/WX    TMP DP  RH WIND       PRES   REMARKS
EVANSTON       CLOUDY    52  38  58 S8        30.36R
KEMMERER       SUNNY    N/A N/A N/A N13       30.35F
FORT BRIDGER   FAIR      47  40  75 NE8       30.36R
ROCK SPRINGS   PTCLDY    48  36  63 E10       30.35R
DIXON          FAIR      44  39  82 CALM      30.34R
RAWLINS        CLEAR     47  35  63 NE13      30.36R
SARATOGA       FAIR      41  37  87 CALM      30.37R
LARAMIE        CLEAR     45  37  73 S8        30.41S
CHEYENNE       CLOUDY    54  38  54 S6        30.41R
TORRINGTON     PTCLDY    49  41  74 CALM      30.35S
PINE BLUFFS    CLOUDY    50  41  71 CALM      30.41R

$$


USA.gov is the U.S. government's official web portal to all federal, state and local government web resources and services.